Vorticity
nan nan nan nan nan nan nan nan nan nan nan nan nan nan nan nan nan nan nan nan nan nan nan nan nan nan nan nan nan nan nan nan nan nan nan nan nan nan nan nan nan nan nan nan
nan 11 11 12 7 2 6 7 8 5 10 12 7 12 12 11 8 6 6 7 8 7 6 8 7 7 8 7 7 8 7 8 6 4 7 7 8 8 8 9 11 10 7 nan
nan 12 9 8 6 7 8 7 7 7 8 14 6 12 9 10 7 7 7 7 8 8 9 8 8 8 8 9 9 8 9 8 7 5 5 7 6 7 10 9 10 12 10 nan
nan 7 9 6 5 12 10 8 12 11 4 5 11 6 16 11 7 8 10 10 9 10 8 8 11 10 8 9 10 10 11 9 9 9 5 7 5 7 8 7 9 12 12 nan
nan 10 10 7 9 7 8 18 14 7 9 6 11 3 14 7 11 14 12 11 11 11 10 11 8 9 11 11 11 11 11 10 9 8 7 6 5 5 7 8 9 8 11 nan
nan 6 11 10 8 11 6 8 10 7 6 12 7 14 18 11 11 9 7 9 10 7 7 10 11 11 12 10 11 11 10 9 10 10 9 4 6 6 5 8 8 7 9 nan
nan 9 9 10 6 12 7 -0 6 9 5 10 10 13 12 10 8 9 10 10 9 15 22 17 14 13 15 15 14 12 10 10 11 11 9 9 8 8 8 8 7 8 9 nan
nan 11 11 8 5 10 15 -1 7 11 11 3 10 13 2 6 12 17 16 13 12 14 18 19 18 18 17 18 19 17 16 16 14 15 13 12 12 10 11 10 8 9 10 nan
nan 6 8 13 12 10 9 7 5 12 12 4 11 11 10 4 10 13 12 11 12 13 13 13 12 13 12 12 13 16 16 15 14 15 16 15 15 12 10 11 12 12 10 nan
nan 16 8 11 9 8 6 14 11 8 4 12 6 6 16 10 4 9 8 9 9 9 8 7 7 8 9 10 10 9 9 9 10 10 11 12 12 13 14 14 11 10 10 nan
nan 10 11 3 15 7 9 2 2 6 11 13 8 11 8 14 10 8 8 7 7 7 6 7 7 8 8 7 7 6 6 7 7 7 7 8 9 10 10 8 9 10 10 nan
nan 5 11 10 5 9 8 15 9 9 9 2 6 14 11 15 13 8 7 7 7 8 7 8 8 7 6 6 6 6 6 7 7 7 7 8 9 9 7 7 8 9 10 nan
nan 10 6 12 5 15 14 10 4 6 11 12 6 15 12 12 11 9 8 7 7 7 7 6 6 6 6 6 6 6 7 7 7 7 7 8 9 9 9 9 9 9 9 nan
nan 12 4 11 11 11 17 12 11 6 10 6 16 8 11 9 8 7 7 7 7 7 6 6 7 6 6 5 6 7 7 6 6 7 6 6 8 10 9 9 9 8 9 nan
nan 9 5 12 14 10 15 15 10 4 6 5 11 18 20 9 10 7 6 6 6 6 7 7 6 5 5 7 6 6 7 6 6 7 7 7 8 9 10 11 11 11 10 nan
nan 5 12 10 13 15 9 9 9 12 9 11 6 19 15 10 8 9 7 6 6 6 7 6 5 5 6 6 7 7 8 8 8 8 8 9 9 10 10 10 10 12 13 nan
nan 10 12 0 3 19 18 8 8 10 8 11 14 14 16 10 7 7 6 7 7 7 6 4 4 5 7 8 8 8 8 9 9 10 10 10 10 10 11 11 11 11 11 nan
nan 1 17 13 6 7 8 11 9 7 14 12 17 15 12 10 8 7 9 9 7 6 7 6 6 8 8 9 9 9 9 9 10 10 10 10 10 10 10 11 12 12 12 nan
nan 5 8 7 6 10 8 15 14 9 8 9 12 13 11 8 6 9 8 8 9 7 7 7 8 9 10 9 8 8 9 10 11 10 9 10 10 10 11 12 12 11 12 nan
nan 7 6 8 4 11 14 12 8 12 13 13 13 11 9 4 6 13 11 8 8 7 6 8 10 10 9 7 8 9 11 11 9 10 10 10 11 12 12 12 11 12 10 nan
nan 4 3 3 9 12 15 10 6 10 14 18 12 10 7 1 12 19 12 7 6 8 9 10 8 8 8 8 9 10 10 10 9 10 11 12 12 12 12 9 10 12 11 nan
nan 13 12 12 16 8 10 8 7 17 16 14 12 10 7 11 12 9 9 8 9 8 7 6 7 8 8 9 10 10 10 9 10 11 12 12 11 11 12 11 12 13 12 nan
nan 7 11 12 20 19 9 10 20 15 14 11 12 11 9 9 8 8 9 9 8 8 6 7 8 9 8 8 11 11 10 11 10 10 12 11 10 11 11 10 13 12 12 nan
nan 9 12 14 8 10 11 12 14 14 12 11 10 10 8 8 10 10 11 10 7 5 7 9 9 10 10 9 11 10 10 11 12 12 12 11 12 11 12 13 12 12 13 nan
nan 16 5 10 12 9 15 12 10 11 9 9 9 10 10 10 11 11 11 8 7 7 8 9 10 11 10 10 10 10 10 11 13 12 13 11 11 12 11 12 12 13 11 nan
nan nan nan nan nan nan nan nan nan nan nan nan nan nan nan nan nan nan nan nan nan nan nan nan nan nan nan nan nan nan nan nan nan nan nan nan nan nan nan nan nan nan nan nan
CAPE
457 426 743 730 641 369 382 314 449 533 627 639 446 285 581 454 321 268 343 453 235 141 91 141 361 544 714 885 1239 1603 1928 2318 2335 2244 1986 1563 1439 1547 1451 1356 1625 2027 2315 2365
342 438 301 436 725 681 643 607 499 500 432 723 430 181 69 241 229 303 528 610 550 337 238 285 393 502 616 758 1001 1459 1993 2213 2491 2224 2109 1809 1618 1719 1894 1903 2011 2237 2460 2608
432 330 314 334 569 639 577 462 381 382 589 832 719 107 0 43 258 360 548 704 775 846 835 647 590 698 749 867 1006 1167 1653 2243 2438 2435 2099 2160 2131 2239 2241 2324 2340 2479 2668 2734
321 331 296 414 542 595 368 393 346 438 590 594 636 22 20 36 166 600 710 762 857 972 1127 1191 1096 957 932 912 1005 1262 1643 2048 2327 2622 2612 3584 2363 2498 2178 2404 2244 2500 2668 2829
373 329 405 536 612 618 557 110 345 362 374 441 311 398 4 36 62 1 40 263 588 785 955 1130 1337 1338 1038 867 990 1209 1778 2200 2400 2434 2586 2443 3000 2295 2229 2259 3761 4309 3944 3012
343 318 414 504 446 512 43 295 401 371 297 384 308 537 166 31 94 3 10 31 120 610 976 1225 1348 1494 1543 1349 1086 1123 1734 2499 2601 2653 2781 3003 3847 3539 2761 2842 2672 2595 2600 2750
357 380 472 506 545 496 197 217 292 282 220 371 249 288 226 219 87 106 215 310 492 658 968 1366 1649 1665 1703 1581 1441 1330 1625 2350 2724 2636 2700 2844 3071 3277 3521 3995 2783 3219 2401 2322
148 255 438 340 549 387 452 482 200 183 134 237 247 298 389 32 39 64 78 179 253 426 624 875 1095 1269 1301 1188 1198 1276 1400 1949 2333 2378 2532 2757 2965 2703 2561 3074 2893 2521 2264 2379
121 37 179 168 411 170 531 337 101 77 2 13 146 275 214 81 160 250 377 540 669 757 806 942 1204 1395 1596 1693 1743 1823 2139 2398 2534 2356 2430 2804 2995 3086 3014 3154 3108 2790 3640 2812
457 221 257 82 128 0 0 21 17 0 20 34 66 130 271 260 267 464 590 843 1251 1543 1637 1718 1780 1863 2073 2540 3232 3366 3078 3139 3202 3190 3211 3198 3572 3723 3627 3540 3515 3503 3442 3297
415 198 296 106 93 55 0 0 0 0 0 68 87 113 273 353 186 464 618 943 1165 1166 1108 1091 1530 1828 1544 1392 1409 1258 1304 1442 1788 2212 2433 2669 2953 3312 3397 2940 2366 2242 2220 2328
428 328 148 384 0 28 12 12 0 1 6 0 9 174 110 89 199 432 755 886 889 1014 1077 1017 1020 970 851 735 700 781 835 928 1068 1265 1248 1115 1314 1948 2038 1697 1737 2000 2075 1937
358 363 391 318 0 5 17 0 0 0 0 0 39 289 229 218 315 490 622 599 687 658 669 662 557 396 368 427 394 204 79 120 304 475 455 492 463 559 516 571 849 1279 1560 1510
87 157 343 277 58 8 0 0 0 0 6 72 33 375 369 250 311 479 439 385 327 392 319 290 335 330 233 236 216 144 79 90 160 443 265 224 392 690 825 1031 1148 1294 1409 1477
237 44 135 72 0 0 0 0 0 0 7 22 44 8 455 308 274 358 377 271 273 183 175 231 184 206 138 134 144 174 168 308 475 588 545 653 779 874 968 1108 1395 1574 1801 1569
159 395 9 15 0 0 0 13 1 0 0 24 8 93 335 185 157 268 175 126 159 198 304 258 152 124 137 294 405 425 565 781 769 914 811 624 445 465 569 857 1072 1382 1453 1693
310 278 124 28 0 0 23 37 28 48 17 40 63 193 318 76 63 129 105 99 146 217 308 274 188 196 291 252 279 394 442 529 492 280 140 167 264 313 401 627 700 879 1156 1436
502 292 43 28 3 2 16 1 5 12 35 31 81 167 279 58 8 12 87 151 210 211 215 215 303 362 353 362 441 428 126 80 49 59 113 166 213 308 458 647 804 869 854 1021
390 195 175 122 1 22 6 17 38 119 130 28 137 90 22 0 0 91 160 252 289 308 226 189 133 163 382 284 83 41 24 45 76 91 86 99 141 310 362 445 545 787 925 1007
256 168 131 22 125 166 113 65 45 47 288 28 93 24 29 34 119 244 316 227 293 188 171 151 145 117 49 20 15 35 42 99 73 50 47 55 35 101 56 265 81 145 359 291
186 277 319 371 160 239 149 74 39 223 425 7 24 25 110 72 267 344 272 244 199 175 167 168 47 0 0 10 30 38 50 61 30 25 18 17 15 29 33 26 65 114 492 346
343 364 268 293 307 224 97 56 283 476 143 0 0 0 34 55 89 175 234 257 191 178 106 24 0 0 0 21 9 17 39 21 17 22 20 19 25 10 14 53 143 267 168 269
134 60 472 517 471 232 139 303 82 94 31 0 0 0 43 129 119 131 199 241 220 96 30 0 0 0 7 14 18 20 15 15 12 16 19 23 16 12 35 40 60 90 354 150
0 8 151 437 221 132 74 2 9 34 38 27 51 104 7 0 22 83 182 276 100 22 0 0 0 10 13 11 18 15 6 3 5 8 12 14 10 12 32 21 30 32 65 13
0 177 317 393 247 63 14 30 65 71 69 28 0 0 4 34 88 163 189 121 43 4 0 2 35 10 9 17 13 2 2 3 3 5 8 11 12 19 22 16 13 12 25 3
1 273 48 15 557 258 323 171 110 61 0 0 12 52 55 51 80 58 58 64 9 14 30 43 8 14 16 15 3 2 0 3 8 3 6 7 14 12 3 4 7 0 0 0